Terug naar catalogus

STARLINK-30236

ActiefCommunicatieVLEO
NORAD 57300·PAYLOAD·🇺🇸 United States

Gelanceerd Jul 10, 2023 vanaf Cape Canaveral Space Force Station

Loading…

Volgende Passages (komende 24 uur)

TLE

VersSource: CelesTrak SupGP

Epoch: Sep 15, 2026, 02:06 UTC

1 57300C 23096L   26258.08798611  .00506720  00000+0  51305-2 0  2581
2 57300  42.9998 226.6166 0001436 274.2472  65.3617 15.64097644    14

Volg STARLINK-30236 in realtime met AllMySat

Download on the App Store